Find Starlink 31474

NORAD ID: 59304 Int'l Des: 2024-056 Owner: SPXS Country: US Constellation: starlink operational
LEOCIRCULAR

現在のビュー

3D地球を読み込み中...

About Starlink 31474

Starlink 31474 (NORAD 59304) is a starlink constellation satellite (v2 mini) launched Mar 24, 2024 by SPXS of US. It operates in LEO, CIRCULAR orbit with a mass of 730.00 kg.

次回通過

Passes for default location (London). Set your location on the main map for personalized predictions.

高度履歴

Loading altitude history...

軌道要素

1 59304U 24056J 26264.13214756 -.00000232 00000-0 10779-5 0 9994
2 59304 43.0017 200.1227 0000672 259.0256 101.0520 15.27577430141125
Epoch: Sep 21, 2026 • Age: 49 hours

現在のステータス

高度 486.6 km
遠地点 / 近地点 N/A
速度 7.63 km/s
衛星直下点 43.03°N, 141.5°W
打ち上げ日 Mar 24, 2024
運用期間 2.4 years
タイプ internet

技術仕様

分類 Payload
質量 730.00 kg
乾燥質量 700.00 kg
長さ 0.30 m
スパン 29.00 m
形状 ? Box + pan
製造者 SPXS
バスタイプ Starlink V2M
フェーズステータス In Orbit
所有者/国 SPXS/US

Most Searched